When you browse on this site, cookies collect data to enhance your experience and personalize the content and advertising you see.
Visit our Privacy Policy to learn more. By continuing to use the site, you agree to this use of cookies and data.
  • în România
  • Lista ţărilor
  • Pe 7 zile
  • Temperatura apei
  • Hartă satelitară
  • Meteo pe hartă
  • Widget-uri
  • user-avatar
    Intrare

    Meteo pe oră la Besedka

    Astăzi, 21 Mai, Marţi

    Timp Temperatura Precipitaţii Vânt Presiune Umiditate
    00:00 +9°C° 0 mm 1 m/s 739 mmHg 59%
    01:00 +8°C° 0 mm 2 m/s 739 mmHg 60%
    02:00 +7°C° 0 mm 2 m/s 739 mmHg 62%
    03:00 +9°C° 0 mm 1 m/s 739 mmHg 61%
    04:00 +10°C° 0 mm 1 m/s 739 mmHg 60%
    05:00 +10°C° 0 mm 1 m/s 740 mmHg 60%
    06:00 +11°C° 0 mm 1 m/s 740 mmHg 60%
    07:00 +12°C° 0 mm 1 m/s 740 mmHg 57%
    08:00 +13°C° 0 mm 1 m/s 740 mmHg 55%
    09:00 +15°C° 0 mm 1 m/s 740 mmHg 49%
    10:00 +16°C° 0 mm 1 m/s 741 mmHg 47%
    11:00 +16°C° 0 mm 1 m/s 741 mmHg 45%
    12:00 +18°C° 0 mm 1 m/s 741 mmHg 43%
    13:00 +18°C° 0 mm 1 m/s 741 mmHg 44%
    14:00 +18°C° 0 mm 1 m/s 740 mmHg 45%
    15:00 +16°C° 0 mm 0 m/s 740 mmHg 45%
    16:00 +18°C° 0 mm 1 m/s 740 mmHg 47%
    17:00 +18°C° 0 mm 1 m/s 740 mmHg 48%
    18:00 +18°C° 0 mm 1 m/s 739 mmHg 49%
    19:00 +16°C° 0 mm 1 m/s 739 mmHg 52%
    20:00 +15°C° 0 mm 1 m/s 739 mmHg 54%
    21:00 +14°C° 0 mm 1 m/s 739 mmHg 57%
    22:00 +13°C° 0 mm 2 m/s 739 mmHg 58%
    23:00 +13°C° 0 mm 2 m/s 739 mmHg 60%

    Mâine, 22 Mai, Miercuri

    Timp Temperatura Precipitaţii Vânt Presiune Umiditate
    00:00 +13°C° 0 mm 2 m/s 739 mmHg 61%
    01:00 +13°C° 0 mm 2 m/s 739 mmHg 62%
    02:00 +12°C° 0 mm 2 m/s 739 mmHg 64%
    03:00 +12°C° 0 mm 2 m/s 739 mmHg 65%
    04:00 +12°C° 0 mm 3 m/s 739 mmHg 63%
    05:00 +12°C° 0 mm 3 m/s 738 mmHg 61%
    06:00 +12°C° 0 mm 4 m/s 738 mmHg 60%
    07:00 +14°C° 0 mm 4 m/s 738 mmHg 55%
    08:00 +16°C° 0 mm 5 m/s 738 mmHg 49%
    09:00 +17°C° 0 mm 5 m/s 738 mmHg 44%
    10:00 +19°C° 0 mm 5 m/s 738 mmHg 43%
    11:00 +20°C° 0 mm 5 m/s 737 mmHg 41%
    12:00 +21°C° 0 mm 5 m/s 737 mmHg 40%
    13:00 +21°C° 0 mm 5 m/s 737 mmHg 40%
    14:00 +22°C° 0 mm 5 m/s 737 mmHg 41%
    15:00 +22°C° 0 mm 5 m/s 736 mmHg 41%
    16:00 +21°C° 0 mm 5 m/s 736 mmHg 44%
    17:00 +21°C° 0 mm 5 m/s 736 mmHg 48%
    18:00 +20°C° 0 mm 4 m/s 735 mmHg 51%
    19:00 +19°C° 0 mm 4 m/s 735 mmHg 53%
    20:00 +17°C° 0 mm 3 m/s 735 mmHg 56%
    21:00 +16°C° 0 mm 3 m/s 735 mmHg 58%
    22:00 +16°C° 0 mm 3 m/s 735 mmHg 57%
    23:00 +15°C° 0 mm 2 m/s 735 mmHg 56%

    Poimâine, 23 Mai, Joi

    Timp Temperatura Precipitaţii Vânt Presiune Umiditate
    00:00 +15°C° 0 mm 2 m/s 735 mmHg 55%
    01:00 +14°C° 0 mm 2 m/s 734 mmHg 56%
    02:00 +14°C° 0 mm 2 m/s 734 mmHg 57%
    03:00 +13°C° 0 mm 2 m/s 733 mmHg 58%
    04:00 +13°C° 0 mm 2 m/s 733 mmHg 58%
    05:00 +12°C° 0 mm 3 m/s 733 mmHg 58%
    06:00 +13°C° 0 mm 3 m/s 733 mmHg 58%
    07:00 +14°C° 0 mm 3 m/s 732 mmHg 52%
    08:00 +17°C° 0 mm 4 m/s 732 mmHg 46%
    09:00 +17°C° 0 mm 5 m/s 732 mmHg 39%
    10:00 +19°C° 0 mm 5 m/s 732 mmHg 42%
    11:00 +19°C° 0 mm 6 m/s 731 mmHg 45%
    12:00 +20°C° 0 mm 7 m/s 731 mmHg 48%
    13:00 +19°C° 0 mm 6 m/s 731 mmHg 54%
    14:00 +19°C° 0 mm 6 m/s 730 mmHg 61%
    15:00 +17°C° 0 mm 5 m/s 730 mmHg 67%
    16:00 +17°C° 0.1 mm 5 m/s 729 mmHg 67%
    17:00 +19°C° 0.1 mm 4 m/s 729 mmHg 68%
    18:00 +19°C° 0.1 mm 4 m/s 729 mmHg 69%
    19:00 +18°C° 0.3 mm 3 m/s 728 mmHg 73%
    20:00 +17°C° 0.3 mm 3 m/s 728 mmHg 77%
    21:00 +16°C° 0.3 mm 2 m/s 728 mmHg 81%
    22:00 +15°C° 0 mm 2 m/s 728 mmHg 83%
    23:00 +15°C° 0 mm 2 m/s 728 mmHg 86%

    24 Mai, Vineri

    Timp Temperatura Precipitaţii Vânt Presiune Umiditate
    00:00 +14°C° 0 mm 2 m/s 727 mmHg 88%
    01:00 +14°C° 0 mm 2 m/s 727 mmHg 88%
    02:00 +13°C° 0 mm 2 m/s 727 mmHg 89%
    03:00 +13°C° 0 mm 2 m/s 727 mmHg 89%
    04:00 +14°C° 0 mm 2 m/s 728 mmHg 87%
    05:00 +13°C° 0 mm 3 m/s 728 mmHg 84%
    06:00 +14°C° 0 mm 3 m/s 729 mmHg 82%
    07:00 +14°C° 0 mm 4 m/s 729 mmHg 80%
    08:00 +14°C° 0 mm 5 m/s 730 mmHg 78%
    09:00 +15°C° 0 mm 6 m/s 730 mmHg 76%
    10:00 +15°C° 0 mm 5 m/s 731 mmHg 72%
    11:00 +15°C° 0 mm 5 m/s 731 mmHg 68%
    12:00 +15°C° 0 mm 4 m/s 732 mmHg 64%
    13:00 +17°C° 0 mm 4 m/s 732 mmHg 60%
    14:00 +18°C° 0 mm 4 m/s 732 mmHg 55%
    15:00 +18°C° 0 mm 4 m/s 732 mmHg 51%
    16:00 +18°C° 0 mm 4 m/s 733 mmHg 50%
    17:00 +17°C° 0 mm 4 m/s 733 mmHg 49%
    18:00 +17°C° 0 mm 4 m/s 733 mmHg 48%
    19:00 +14°C° 0 mm 4 m/s 734 mmHg 51%
    20:00 +12°C° 0 mm 4 m/s 734 mmHg 54%
    21:00 +11°C° 0 mm 3 m/s 735 mmHg 57%
    22:00 +10°C° 0 mm 3 m/s 735 mmHg 57%
    23:00 +9°C° 0 mm 3 m/s 735 mmHg 58%

    25 Mai, Sâmbătă

    Timp Temperatura Precipitaţii Vânt Presiune Umiditate
    00:00 +8°C° 0 mm 3 m/s 735 mmHg 58%
    01:00 +8°C° 0 mm 3 m/s 736 mmHg 60%
    02:00 +7°C° 0 mm 3 m/s 736 mmHg 62%
    03:00 +7°C° 0 mm 3 m/s 736 mmHg 64%
    04:00 +7°C° 0 mm 3 m/s 736 mmHg 65%
    05:00 +7°C° 0 mm 4 m/s 736 mmHg 66%
    06:00 +7°C° 0 mm 4 m/s 736 mmHg 67%
    07:00 +10°C° 0 mm 4 m/s 736 mmHg 63%
    08:00 +10°C° 0 mm 5 m/s 737 mmHg 59%
    09:00 +13°C° 0 mm 5 m/s 737 mmHg 54%
    10:00 +14°C° 0 mm 5 m/s 737 mmHg 51%
    11:00 +15°C° 0 mm 5 m/s 736 mmHg 48%
    12:00 +16°C° 0 mm 5 m/s 736 mmHg 44%
    13:00 +17°C° 0 mm 5 m/s 736 mmHg 44%
    14:00 +19°C° 0 mm 5 m/s 736 mmHg 44%
    15:00 +19°C° 0 mm 5 m/s 735 mmHg 43%
    16:00 +19°C° 0 mm 5 m/s 735 mmHg 46%
    17:00 +19°C° 0 mm 5 m/s 735 mmHg 48%
    18:00 +18°C° 0 mm 4 m/s 734 mmHg 51%
    19:00 +17°C° 0 mm 4 m/s 734 mmHg 53%
    20:00 +15°C° 0 mm 4 m/s 734 mmHg 55%
    21:00 +14°C° 0 mm 4 m/s 733 mmHg 56%
    22:00 +14°C° 0 mm 4 m/s 733 mmHg 55%
    23:00 +14°C° 0 mm 4 m/s 733 mmHg 54%

    26 Mai, Duminică

    Timp Temperatura Precipitaţii Vânt Presiune Umiditate
    00:00 +13°C° 0 mm 5 m/s 733 mmHg 53%
    01:00 +13°C° 0.1 mm 5 m/s 732 mmHg 53%
    02:00 +13°C° 0.1 mm 5 m/s 732 mmHg 52%
    03:00 +13°C° 0.1 mm 5 m/s 731 mmHg 52%
    04:00 +12°C° 0.6 mm 5 m/s 731 mmHg 55%
    05:00 +12°C° 0.6 mm 5 m/s 731 mmHg 58%
    06:00 +12°C° 0.6 mm 5 m/s 730 mmHg 61%
    07:00 +11°C° 0.1 mm 6 m/s 730 mmHg 61%
    08:00 +12°C° 0.1 mm 7 m/s 729 mmHg 60%
    09:00 +14°C° 0.1 mm 7 m/s 729 mmHg 60%
    10:00 +15°C° 0 mm 7 m/s 729 mmHg 63%
    11:00 +16°C° 0 mm 8 m/s 728 mmHg 67%
    12:00 +17°C° 0 mm 8 m/s 728 mmHg 70%
    13:00 +20°C° 0.8 mm 8 m/s 728 mmHg 68%
    14:00 +21°C° 0.8 mm 8 m/s 727 mmHg 66%
    15:00 +22°C° 0.8 mm 8 m/s 727 mmHg 64%
    16:00 +22°C° 1.1 mm 7 m/s 727 mmHg 65%
    17:00 +22°C° 1.1 mm 6 m/s 726 mmHg 66%
    18:00 +21°C° 1.1 mm 5 m/s 726 mmHg 67%
    19:00 +20°C° 0 mm 5 m/s 726 mmHg 71%
    20:00 +19°C° 0 mm 5 m/s 726 mmHg 75%
    21:00 +16°C° 0 mm 5 m/s 726 mmHg 79%
    22:00 +17°C° 0.4 mm 4 m/s 726 mmHg 82%
    23:00 +15°C° 0.4 mm 4 m/s 726 mmHg 85%
    Arată mai mult